Location: Newark
(47.5833°N, 8.1500°E)
Time: 06:34:16
(UTC+00:00)

Tiros 1 despin weight - Pass Details

Date: 02 November 2020
Orbit: 593 x 642 km, 48.2° (Epoch: 30 November)

Event Time Altitude Azimuth Distance (km) Brightness Sun altitude
Exits shadow 03:21:30 17° 145° (SE) 1,503 ? -29.3°
Drops below altitude 10° 03:22:40 10° 138° (SE) 1,918 ? -29.1°
Sets 03:25:01 0° 131° (SE) 2,817 ? -28.7°
